OBJECT E, 59777

Orbit data source: Space-Track

You're viewing an Uncataloged Satellite

Recently launched and/or uncataloged satellites may have evolving metadata. Metadata may include but not limited to: Owner, Maufacturer, Bus, Motor, and Mission.

OBJECT E, 59777 is a satellite owned by Sitronics (CIS) in SSO that was launched on Thu, 16 May 2024 UTC via a SOYUZ-2-1B launch vehicle from the Plesetsk Missile And Space Complex (PKMTR). Unknown objects in Earth's orbit typically refer to objects detected orbiting the Earth but have not yet been identified or cataloged. These objects could be anything from previously untracked satellites, spent rocket stages, debris from satellite collisions, or even natural meteoroids temporarily captured by Earth's gravity.

Loading next visibility...
OBJECT E details
Identifier
59777, 2024-092E
Orbit
SSO
Last TLE update17 hours ago
Origin
Flag of CISSitronics (CIS)
ManufacturerSputniks
MissionOperational spacecraft
Bus & MotorCUBESAT 3U?, Unknown motor
Mass3 kg wet, 3 kg dry
Launch date (UTC)
2024-05-16 (7 months ago)
Launch vehicle
SOYUZ-2-1B
Launch site
Plesetsk Missile And Space Complex (PKMTR)
Object typeUnknown
Shape & HBRUnknown
Radar Cross SectionSmall (<0.1 m²)

Expand to show TLE details & history

TLE from 17 hours ago
0 OBJECT E
1 59777U 24092E   24355.89528030  .00016075  00000-0  84938-3 0  9990
2 59777  97.6101 106.7534 0010798 252.2631 107.7423 15.15529759 32898
Epoch: 2024-12-20T21:29Z
Definitive object data (Epoch: 2024-12-20T21:29:12.217Z)
Latitude-0.00004°
Longitude54.49827°
Altitude524.727 km
Speed7.6 km/s
True Right ascension07h 07m 00s
True Declination0° 00' 00"
Sunlit
Object was in full shadow at TLE epoch
Visualization TLE readout
Latitude-39.58919°
Longitude61.52686°
Altitude531.993 km
Speed7.597 km/s
Apparent Right ascension04h 50m 07s
Apparent Declination-48° 43' 19"
Sunlit
Object is in full shadow
Visualization observer readout
Local Sidereal Time13:46:41
Azimuth239.256° WSW
Elevation-56.574°
Doppler factor1
Orbital elements
Apogee altitude523.796 km
Perigee altitude508.907 km
Semi-major axis6,894.488 km
Eccentricity0.0010798
Inclination97.6101°
RAAN106.7534°
Arg. of periapsis252.2631°
True anomaly107.8601°
Mean anomaly107.7423°
Eccentric anomaly107.80121°
Mean motion3.79132 °/min
BSTAR0.00084938
Orbital period94.95 mins
Loading maneuver chart data...
Loading historical data...
Loading historical data...
Loading historical data...
Loading historical data...
Loading historical data...
Loading historical data...
Loading historical data...

OBJECT E Visibility forecast

Observer location: undefined°, undefined

Span
Click to sort rows by Start time (UTC) header in descending order
Start Az.
Max El. time (UTC)
Max El. Az.
Max El.
End time (UTC)
End Az.
6 mins2024-12-21 20:14:30.660Z25.331° NE2024-12-21 20:17:30.660Z112.683° SE38.92°2024-12-21 20:20:30.660Z176.841° S
5 mins2024-12-22 06:54:30.660Z119.288° SE2024-12-22 06:57:30.660Z58.412° ENE21.818°2024-12-22 06:59:30.660Z21.794° NNE
4 mins2024-12-22 08:29:30.660Z231.549° WSW2024-12-22 08:31:30.660Z274.403° WNW19.609°2024-12-22 08:33:30.660Z310.014° NW
|